SCP
0 0 0 0 0 0 0 0 0 0 0 0 0 0 0 0 0 0 0 0 0 0 0 0 0 0 0 0 0 0 0 0 0 0 0 0 0 0 0 0 0 0 0 0 0 0 0 -0 0 0 0 1 0 0
0 0 0 0 0 0 0 0 0 0 0 0 0 0 0 0 0 0 0 0 0 0 0 -0 -0 -0 0 0 0 0 0 0 0 0 0 1 0 0 0 0 0 0 0 0 0 0 0 0 0 1 1 1 1 1
0 0 0 0 0 0 0 0 0 0 0 0 0 0 0 0 0 0 0 0 0 0 0 0 0 0 0 0 0 0 0 -0 0 0 0 0 0 0 -0 0 -0 0 0 0 0 0 2 2 1 1 1 1 0 0
0 0 0 0 0 0 0 0 0 0 0 0 0 0 0 0 0 0 0 0 0 0 0 0 0 -0 0 0 0 0 0 -0 0 0 0 0 0 -0 -0 -0 0 0 0 0 1 1 1 2 2 1 1 1 1 1
0 0 0 0 0 0 0 0 0 0 0 0 0 0 0 0 0 0 0 0 0 0 0 0 0 0 -0 -0 0 0 0 0 0 0 0 -0 -0 -0 -0 -0 0 0 1 1 1 2 1 5 2 1 1 1 1 2
0 0 0 0 0 0 0 0 0 0 0 0 0 0 0 0 0 0 0 0 0 0 0 0 0 -0 -0 0 -0 0 0 0 0 0 -0 0 0 -0 -0 -0 -0 0 0 0 0 0 0 1 2 1 1 1 1 1
0 0 0 0 0 0 0 0 0 0 0 0 0 0 0 0 0 0 0 0 0 0 0 0 0 0 -0 -0 0 0 0 0 0 0 0 -0 -0 0 -0 -0 -0 0 0 -0 0 0 0 0 2 1 1 0 1 1
0 0 0 0 0 0 0 0 0 0 0 0 0 0 0 0 0 0 0 0 0 0 0 -0 -0 -0 0 0 -0 -0 -0 -0 -0 0 -0 0 0 -0 0 -0 0 0 0 0 0 0 -0 -0 0 0 0 0 1 1
0 0 0 0 0 0 0 0 0 0 0 0 0 0 0 0 0 0 0 0 0 0 0 0 0 0 -0 -0 0 -0 0 -0 -0 0 0 0 1 0 -0 0 -0 -0 0 0 0 0 -0 0 0 0 0 0 0 0
0 0 0 0 0 0 0 0 0 0 0 0 0 0 0 0 0 0 0 0 0 0 0 -0 0 -0 -0 0 -0 0 0 0 0 0 0 0 0 -0 -0 0 1 1 0 0 1 0 0 0 0 0 1 1 1 2
0 0 0 0 0 0 0 0 0 0 0 0 0 0 0 0 0 0 0 0 0 0 0 -0 -0 -0 -0 0 -0 0 0 0 0 -0 0 0 0 0 -0 -0 0 0 0 -0 0 0 0 0 0 0 1 1 1 2
0 0 0 0 0 0 0 0 0 0 0 0 0 0 0 0 0 0 0 -0 -0 -0 -0 -0 -0 0 -0 0 -0 0 0 0 0 0 0 -0 0 0 0 0 0 0 0 0 0 0 0 0 0 0 0 1 1 2
0 0 0 0 0 0 0 0 0 0 0 0 0 0 0 0 0 0 0 -0 -0 0 -0 -0 -0 0 -0 -0 -0 0 0 0 0 0 0 0 1 1 0 0 0 0 0 0 0 0 0 0 0 0 1 1 1 1
0 0 0 0 0 0 0 0 0 0 0 0 0 0 0 0 0 0 -0 -0 0 0 -0 -0 0 -0 -0 -0 -0 0 0 0 0 0 0 0 1 1 1 0 0 0 0 0 0 0 0 1 1 1 1 1 1 1
0 0 0 0 0 0 0 0 0 0 0 0 0 0 0 0 0 -0 -0 -0 0 -0 -0 -0 0 -0 -0 -0 0 -0 -0 0 0 0 0 -0 0 0 0 0 0 0 0 0 0 0 0 0 0 0 0 1 1 1
0 0 0 0 0 0 0 0 0 0 0 0 0 0 0 0 0 0 -0 0 -0 0 -0 0 0 0 0 -0 0 -0 0 0 0 -0 0 -0 0 0 0 0 0 0 0 0 0 0 0 1 0 0 0 0 0 0
0 0 0 0 0 0 0 0 0 0 0 0 0 0 0 -0 -0 0 -0 0 0 0 0 0 0 0 -0 0 0 0 0 -0 0 0 -0 0 0 0 0 0 0 0 0 0 0 0 0 0 0 1 1 1 0 0
0 0 0 0 0 0 0 0 0 0 0 0 0 0 -0 -0 -0 -0 -0 -0 0 0 0 0 -0 0 0 0 -0 0 0 -0 -0 -0 0 0 0 -0 0 0 0 0 0 0 0 0 -0 0 0 0 0 0 0 0
0 0 0 0 0 0 0 0 0 0 0 0 0 0 0 0 0 0 0 0 0 0 0 0 0 0 0 0 0 0 -0 -0 0 -0 -0 -0 -0 -0 -0 -0 0 0 0 0 0 -0 -0 0 -0 0 0 0 0 0
0 0 0 0 0 0 0 0 0 0 0 0 0 0 0 0 0 0 -0 0 0 0 0 0 -0 -0 0 0 0 0 0 0 0 0 -0 -0 -0 0 -0 -0 0 0 -0 0 -0 0 0 0 -0 0 0 0 0 0
0 0 0 0 0 0 0 0 0 0 0 0 0 0 0 -0 -0 -0 0 0 0 0 0 0 -0 -0 0 0 0 0 0 0 0 0 0 0 0 0 0 0 0 -0 0 0 0 -0 -0 0 -0 -0 -0 0 0 0
0 -0 0 0 0 0 0 0 0 0 0 -0 0 0 0 0 0 0 -0 0 0 0 0 0 -0 0 -0 0 0 0 0 0 0 0 0 0 0 0 0 0 -0 0 -0 0 0 0 -0 -0 -0 0 0 0 -0 -0
0 0 0 0 0 0 0 0 0 0 0 0 0 0 0 -0 0 0 0 0 0 0 0 0 0 0 0 0 0 0 0 0 0 -0 0 -0 -0 -0 -0 -0 -0 0 -0 -0 0 -0 -0 0 0 -0 -0 -0 0 0
0 0 0 0 0 0 0 0 0 0 0 -0 0 0 0 0 0 0 0 0 0 0 0 0 0 0 -0 0 0 0 0 -0 0 0 0 0 0 -0 0 0 0 -0 -0 -0 -0 -0 0 0 0 -0 -0 -0 -0 -0
0 0 0 0 0 0 0 0 0 -0 0 -0 -0 -0 0 0 -0 0 0 0 0 0 0 0 0 0 0 0 0 0 -0 0 -0 -0 0 0 0 -0 -0 0 -0 -0 0 -0 -0 -0 -0 0 0 0 0 0 0 0
0 0 0 0 0 0 0 0 0 -0 0 -0 0 0 0 0 0 0 0 0 0 0 0 0 0 0 0 0 0 0 -0 -0 0 0 -0 -0 -0 -0 -0 -0 0 -0 -0 -0 -0 -0 -0 -0 -0 -0 -0 -0 -0 -0
0 0 0 0 0 0 0 0 0 0 0 0 0 0 0 0 0 0 0 0 0 0 0 0 0 0 0 0 0 0 0 0 0 0 0 0 -0 -0 -0 -0 -0 -0 -0 -0 -0 -0 -0 -0 -0 -0 -0 -0 -0 -0
0 0 -0 0 0 0 0 0 0 0 0 0 0 0 0 0 0 0 0 0 0 0 0 0 0 0 0 0 0 0 0 0 0 0 -0 -0 -0 -0 -0 -0 -0 -0 -0 -0 -0 -0 -0 -0 -0 0 -0 -0 -0 -0
-0 -0 0 0 -0 0 0 0 0 0 0 0 0 0 0 0 -0 -0 0 0 0 0 0 0 0 0 0 0 0 0 0 0 0 0 -0 0 -0 -0 -0 -0 -0 -0 -0 -0 -0 -0 -0 -0 -0 0 -0 0 0 -0
0 -0 -0 -0 -0 -0 0 0 0 0 0 0 -0 -0 -0 0 -0 0 -0 0 0 0 0 0 0 0 0 0 -0 0 0 0 0 -0 -0 0 0 0 0 -0 -0 -0 -0 -0 -0 -0 0 0 -0 0 0 0 0 0
-0 -0 0 -0 0 0 0 0 0 0 0 0 0 0 0 0 -0 -0 -0 0 0 0 0 0 0 0 0 0 0 0 0 0 -0 0 0 0 0 0 0 0 -0 -0 -0 -0 -0 -0 0 0 0 0 0 0 -0 0
0 0 -0 -0 0 0 0 0 0 0 0 -0 0 0 0 0 0 0 0 0 0 0 0 0 0 0 0 0 0 0 -0 -0 -0 0 0 -0 -0 0 0 -0 -0 -0 -0 -0 -0 -0 -0 0 0 0 0 0 0 0
0 0 0 0 0 0 -0 0 0 0 0 0 0 0 0 0 0 0 0 0 0 0 0 0 0 0 0 0 0 0 0 0 -0 -0 -0 -0 -0 0 -0 -0 -0 -0 -0 -0 -0 -0 -0 0 0 0 0 0 0 0
Wind_Speed_500mb
41 41 41 39 40 39 39 40 40 41 43 44 43 42 39 37 36 33 23 23 30 47 78 70 51 49 43 48 28 44 33 31 32 33 32 33 36 37 40 47 46 44 38 34 35 43 43 55 41 44 2 38 25 13
43 44 43 42 40 40 40 39 40 40 40 42 43 42 41 38 37 36 30 18 28 34 62 74 81 81 79 80 67 63 53 50 16 6 8 10 14 19 45 29 43 46 40 29 35 27 35 38 12 22 23 21 14 10
44 46 47 44 43 40 40 41 41 41 40 40 42 44 42 40 38 39 41 37 35 44 67 60 54 40 50 67 57 62 60 54 23 7 3 5 13 14 18 30 31 42 61 41 39 34 23 11 2 9 14 21 15 12
50 47 49 49 47 47 43 44 42 41 42 44 44 45 47 45 44 48 51 36 32 26 19 37 32 54 48 39 54 57 65 48 25 14 21 14 15 11 20 21 37 41 49 37 17 22 37 40 6 7 26 24 25 23
55 51 48 50 48 51 48 44 45 44 45 46 48 48 49 47 50 57 57 46 34 32 24 50 79 36 31 51 42 47 56 51 48 38 19 24 39 23 31 17 37 41 26 12 17 53 62 37 35 23 30 40 36 37
59 56 51 50 49 51 50 47 46 45 44 47 49 51 52 53 52 36 12 2 21 43 12 11 42 57 45 46 51 55 66 52 21 11 25 32 45 8 8 7 16 50 36 27 24 70 79 33 59 53 40 48 52 53
56 57 53 56 52 50 50 48 46 46 44 46 48 54 57 46 39 19 9 6 12 10 7 18 17 20 32 26 5 7 3 6 13 19 19 38 43 18 9 14 35 71 41 30 32 61 54 31 57 60 60 51 59 59
63 57 55 55 54 49 51 47 47 46 44 45 47 50 41 29 17 17 16 34 38 15 10 8 13 27 34 20 4 4 4 8 12 14 13 28 26 22 8 15 37 60 29 50 27 60 49 44 52 52 52 51 54 56
63 61 50 54 51 46 52 45 44 45 44 42 35 35 23 7 5 12 20 20 24 20 8 12 8 9 8 19 10 2 2 6 11 12 16 21 11 7 16 42 47 58 26 10 18 53 43 48 38 36 38 37 45 38
57 57 54 51 47 48 45 40 41 41 38 26 20 8 6 5 17 32 10 9 17 12 14 14 31 19 12 9 9 8 5 7 7 17 28 12 3 58 55 11 16 25 35 46 55 40 35 31 28 26 32 37 49 38
55 54 52 46 45 39 38 33 35 37 20 19 12 9 12 18 15 8 8 10 11 10 14 17 26 18 17 7 8 16 6 8 9 10 6 9 6 14 35 18 23 28 28 29 26 26 28 29 28 23 28 38 39 37
52 50 47 42 36 36 31 27 30 25 15 25 24 33 18 7 11 12 8 10 7 7 10 13 27 30 16 16 8 4 8 7 11 3 6 11 6 20 25 28 27 29 26 29 26 22 20 18 19 28 26 33 34 36
33 31 33 35 33 32 26 22 25 23 24 9 6 6 7 9 7 10 8 6 6 6 13 23 29 27 11 4 6 3 8 10 16 7 5 8 10 17 27 23 26 28 29 31 30 27 24 20 19 26 34 30 29 30
30 34 40 37 34 24 21 18 16 14 10 11 13 8 10 12 11 5 10 8 15 21 32 31 32 8 10 6 5 6 9 8 9 12 9 4 8 21 24 20 23 25 24 26 28 28 27 26 27 26 27 29 30 29
38 42 40 33 24 21 16 11 11 9 7 12 12 7 15 30 23 19 19 20 21 15 26 29 23 10 6 7 3 7 10 14 11 8 2 21 16 14 19 25 23 21 20 20 22 20 20 22 26 28 28 29 28 26
34 29 23 20 18 16 11 11 13 8 10 12 17 20 25 26 15 10 20 24 8 20 31 25 11 7 8 5 5 10 6 6 4 9 23 22 24 23 23 23 25 23 21 22 20 16 17 16 22 26 27 22 21 19
24 20 17 15 16 13 10 7 13 15 13 12 17 28 32 31 29 20 25 20 7 19 11 10 8 5 12 4 5 15 8 8 16 42 31 25 27 29 27 27 24 23 20 22 15 18 23 20 27 30 24 20 19 13
24 18 19 14 11 5 12 15 12 16 24 30 31 34 31 31 29 25 13 8 12 19 21 6 9 9 8 13 10 13 20 42 35 35 26 27 26 25 24 24 23 23 21 23 23 22 12 8 23 19 15 12 3 6
29 26 20 17 15 13 10 15 20 13 24 31 33 34 29 27 26 25 23 20 22 22 22 9 9 7 7 18 17 21 35 21 20 30 26 24 22 21 18 16 15 16 11 13 13 14 15 12 9 14 14 14 17 6
31 23 16 13 15 8 10 12 17 17 16 18 24 25 23 26 25 18 11 22 25 24 9 6 7 8 18 15 20 21 15 21 25 31 35 27 17 15 11 13 14 14 12 10 6 13 15 9 14 19 17 19 6 10
26 19 13 17 18 13 11 12 22 18 24 29 29 28 22 22 22 24 23 24 33 23 20 14 23 6 19 24 17 15 15 27 38 25 18 13 10 14 9 6 10 11 11 10 9 6 9 10 13 20 20 11 9 4
16 16 10 14 12 9 15 21 17 19 17 31 32 28 22 19 22 24 21 27 30 30 30 21 13 6 7 7 16 15 9 12 17 15 12 10 8 22 13 13 7 9 9 11 6 7 18 17 22 10 5 6 4 4
20 19 10 14 12 11 16 17 25 27 12 12 22 25 22 23 17 8 9 23 30 37 26 21 12 8 10 11 9 4 2 5 8 9 5 21 9 12 12 10 7 5 5 2 9 10 16 16 15 17 19 19 16 13
18 9 8 13 21 11 17 18 17 17 19 27 19 18 12 9 9 9 12 21 21 23 14 19 13 15 14 15 11 9 11 10 6 2 14 8 12 10 7 4 5 12 10 8 11 10 11 16 18 21 25 29 30 32
10 12 12 13 14 13 10 18 26 22 21 20 22 19 3 8 8 4 12 8 14 13 16 14 18 19 18 10 13 14 18 16 11 9 2 7 14 18 9 22 11 9 7 10 13 17 15 16 17 19 22 17 21 25
9 14 12 16 15 11 10 7 14 19 20 23 11 7 4 8 7 7 3 8 6 10 13 12 15 14 18 17 11 29 28 19 13 10 11 16 28 8 17 16 4 10 8 8 12 16 16 19 19 20 22 31 31 21
9 13 20 20 20 16 13 18 21 9 12 9 9 7 5 7 5 4 9 8 9 4 1 6 7 10 8 15 22 17 21 19 13 12 8 0 4 15 17 12 16 10 9 12 12 18 22 23 21 20 23 17 16 14
19 12 21 23 24 22 19 21 8 9 11 17 8 6 5 6 5 2 5 8 10 4 6 8 8 13 9 1 9 9 17 11 13 9 11 15 6 16 18 15 13 21 18 19 17 19 22 21 21 20 17 13 12 10
19 16 22 23 27 18 19 22 25 17 9 4 3 4 6 7 10 11 8 11 17 9 7 16 12 6 12 13 8 10 16 13 18 12 12 8 29 19 12 18 20 16 15 27 25 22 24 23 20 18 18 13 10 8
27 24 25 24 23 20 27 19 27 29 18 3 11 11 14 26 15 8 8 14 18 20 16 11 6 9 10 16 19 17 14 14 15 25 24 21 25 19 18 18 17 16 20 19 21 24 24 19 20 14 14 9 7 6
23 28 29 28 26 29 31 24 24 27 22 14 14 14 12 13 17 12 13 16 14 14 10 13 14 18 17 16 9 16 19 15 15 16 11 29 25 20 18 17 18 18 19 19 20 21 21 18 13 11 9 5 3 2
25 21 22 17 23 22 20 28 29 28 23 20 24 24 20 16 19 14 12 21 18 17 10 13 12 12 13 13 14 16 23 11 25 13 12 29 29 24 18 19 20 19 19 19 19 18 16 11 9 8 10 7 5 5
14 20 20 20 22 12 21 18 12 18 25 28 31 29 27 25 25 12 20 26 27 17 17 6 6 8 15 14 16 6 34 11 32 29 19 34 26 21 19 21 21 19 19 18 17 14 13 7 8 7 5 6 7 8
Wind_Direction_500mb
332 333 331 333 336 337 338 339 341 342 342 343 342 338 337 336 335 332 308 302 291 284 283 280 286 281 274 271 273 278 288 280 258 260 266 268 258 257 261 260 253 253 226 227 242 246 245 257 255 250 151 23 207 78
324 324 323 327 328 330 329 330 332 335 336 336 338 335 331 331 330 326 311 309 290 277 268 281 278 271 259 258 266 272 272 272 284 309 359 324 311 299 299 270 270 245 244 231 226 234 242 260 324 70 103 98 59 71
313 318 318 321 321 322 322 322 325 327 329 330 331 330 325 320 318 314 301 295 296 287 294 276 277 285 267 250 243 243 251 261 296 293 152 233 268 273 292 273 333 266 241 238 228 239 65 72 102 132 131 122 122 111
303 308 314 317 320 317 318 317 317 320 322 324 325 324 323 315 310 307 300 284 270 282 284 293 311 295 282 283 229 230 235 254 260 242 240 233 246 206 278 292 293 296 299 236 225 183 156 176 143 151 127 121 106 97
293 297 302 309 314 311 311 313 314 317 319 322 323 321 320 315 309 307 304 281 247 234 297 301 305 309 282 254 241 227 232 239 241 225 242 253 265 281 268 261 279 293 306 265 207 3 342 139 134 147 123 112 107 103
284 287 291 298 304 307 309 309 310 312 317 321 321 317 313 312 309 316 336 2 226 235 272 302 304 297 288 283 235 226 225 234 237 233 262 268 264 281 282 258 293 314 340 23 16 25 347 134 119 113 104 106 107 107
285 288 285 290 295 302 307 305 307 310 317 321 318 313 311 309 295 242 303 272 251 234 263 288 286 317 330 316 84 49 182 221 234 249 240 256 250 222 263 273 305 273 279 33 81 118 274 126 119 112 108 113 109 110
281 280 283 284 287 297 303 303 305 309 318 321 317 310 314 314 308 289 283 259 261 238 243 273 276 306 334 327 30 200 237 249 230 245 256 251 243 191 220 147 339 323 266 187 156 172 227 114 112 122 113 115 114 120
271 282 279 282 284 294 298 300 306 311 322 326 316 308 293 282 283 257 279 271 251 221 260 238 263 292 335 292 261 193 187 287 255 235 220 236 257 74 130 151 179 263 296 203 120 136 110 105 106 115 124 130 124 127
270 270 277 278 280 287 292 296 305 315 333 344 329 299 234 246 305 299 299 185 203 234 239 258 265 264 213 248 294 130 187 247 245 222 220 205 226 151 98 89 283 346 35 44 57 47 90 110 105 91 83 111 119 115
268 270 276 266 276 278 285 293 306 320 355 345 302 298 310 302 314 254 245 199 194 246 225 248 247 259 261 257 242 167 234 253 267 172 214 149 111 56 92 96 60 62 55 64 78 72 74 71 95 98 93 98 112 125
264 265 262 265 270 280 280 290 303 316 303 303 287 287 291 254 237 242 224 193 215 267 276 276 307 307 282 230 233 317 278 288 269 302 239 130 92 76 67 61 60 62 72 77 76 75 83 88 99 108 110 116 118 123
266 264 266 258 270 272 268 281 299 303 323 308 272 258 237 235 249 232 229 185 249 241 266 304 316 320 287 346 120 147 290 271 310 236 58 59 128 86 64 62 57 57 56 59 62 68 74 79 93 111 107 113 121 125
260 265 264 261 265 256 258 281 283 303 316 255 211 237 237 204 232 279 316 278 289 270 279 294 303 278 299 293 153 248 234 306 264 8 46 329 99 66 61 53 48 41 47 56 58 63 72 83 92 103 114 122 126 125
263 265 256 255 244 239 255 250 266 289 260 254 243 232 236 248 242 245 285 305 311 269 274 295 288 254 263 260 310 287 212 190 8 92 302 161 110 82 61 55 53 45 45 51 45 73 84 94 107 111 115 115 118 119
257 251 249 224 219 228 214 244 263 204 246 237 240 253 270 285 288 306 300 278 285 273 281 262 262 258 243 322 271 236 226 50 255 197 157 122 98 84 71 60 53 51 48 41 56 79 101 118 128 124 116 117 124 121
240 225 225 198 188 189 218 222 194 219 242 237 241 238 249 272 280 302 299 307 326 297 290 279 267 264 128 247 279 7 10 228 301 117 120 124 117 101 88 77 68 62 59 52 66 83 76 90 96 124 97 79 100 113
221 220 207 185 168 188 223 210 238 229 233 250 263 265 267 270 275 264 262 303 263 272 295 264 270 272 319 352 93 286 222 264 115 107 112 117 112 100 92 86 79 78 77 78 72 68 71 70 33 67 92 63 39 176
208 201 189 179 179 182 218 220 222 267 247 260 260 262 266 277 279 283 295 271 257 272 277 297 267 283 340 17 354 357 2 359 121 117 111 116 113 110 103 106 97 101 96 75 97 91 95 96 81 49 52 45 5 326
195 193 187 199 192 205 233 235 216 254 272 268 283 255 262 265 269 262 249 258 265 258 232 238 266 11 317 307 339 349 12 355 86 108 116 128 136 134 133 129 117 102 87 72 28 43 37 65 33 18 19 351 21 34
186 187 207 213 203 231 267 258 222 255 275 277 272 278 254 254 249 246 228 242 254 248 257 262 232 140 302 290 308 354 11 30 53 79 105 107 84 98 14 318 118 86 85 23 259 92 45 42 26 2 351 20 25 4
159 149 167 183 215 236 254 235 249 313 280 267 275 280 267 266 265 255 225 221 237 239 246 249 194 244 237 351 6 10 47 72 64 76 88 101 59 114 130 137 95 80 75 51 104 93 62 20 7 0 350 14 34 178
145 161 203 201 222 235 258 234 241 245 254 273 220 232 241 244 261 238 243 232 232 246 239 237 228 245 261 313 334 322 144 98 59 114 37 351 125 86 75 107 100 69 8 68 21 27 27 39 31 57 60 62 66 83
171 195 233 210 213 248 240 219 221 244 240 233 258 261 243 243 249 253 252 247 276 242 211 161 185 226 235 251 251 237 200 167 169 145 19 0 356 132 78 136 105 70 53 35 43 74 72 85 71 80 87 87 86 94
194 225 212 239 234 220 247 232 229 243 244 242 238 253 68 298 181 230 259 201 219 228 180 186 221 231 220 277 229 197 180 181 186 174 252 52 180 327 85 107 65 53 61 98 104 105 99 107 112 113 107 106 106 106
215 220 213 212 215 219 218 234 203 221 234 250 246 211 27 266 210 225 162 211 163 220 158 201 203 230 245 256 246 209 194 189 213 237 234 229 169 334 247 228 48 89 74 99 146 117 121 132 127 127 125 112 96 102
236 234 211 234 263 227 248 267 293 263 224 248 241 260 198 243 230 116 151 180 185 178 190 237 272 242 220 179 200 221 233 234 180 159 215 119 353 119 121 138 132 100 108 112 130 118 132 138 138 137 136 116 112 107
234 247 229 215 221 247 259 264 251 229 233 241 216 185 304 36 28 87 180 172 181 187 289 272 285 273 212 128 220 189 195 181 204 187 211 177 186 138 121 100 82 133 132 128 129 128 134 136 137 139 137 137 129 109
232 223 226 242 231 218 236 242 247 254 242 225 51 60 1 337 196 192 239 250 202 214 261 267 245 229 218 221 216 208 220 208 195 191 207 180 137 123 108 111 115 123 137 138 137 138 135 134 137 134 141 132 137 133
233 224 235 229 231 230 234 233 238 257 285 256 140 155 202 251 202 187 202 215 234 248 241 229 238 241 214 214 210 205 209 205 218 220 210 180 173 161 156 138 141 136 134 144 148 151 148 138 139 132 145 145 156 194
228 218 227 238 236 228 235 239 237 254 275 270 249 224 211 237 229 230 226 219 233 235 254 263 231 233 218 230 222 194 205 208 194 202 171 178 156 157 152 151 152 149 147 149 148 147 146 149 150 149 161 204 165 44
226 232 222 218 239 250 237 229 227 247 242 231 247 247 238 225 254 258 227 207 217 236 237 224 214 141 179 193 229 217 200 219 154 140 132 169 159 156 154 154 155 153 152 152 152 156 164 172 162 173 160 128 131 177
252 230 224 227 244 218 196 221 231 229 242 244 243 236 228 232 240 241 220 215 219 216 234 183 191 201 190 211 173 141 203 184 146 152 157 158 151 146 151 152 151 152 149 148 154 161 163 170 155 159 147 147 189 155
Wind_Speed_850mb
41 41 41 39 40 39 39 40 40 41 43 44 43 42 39 37 36 33 23 23 30 47 78 70 51 49 43 48 28 44 33 31 32 33 32 33 36 37 40 47 46 44 38 34 35 43 43 55 41 44 2 38 25 13
43 44 43 42 40 40 40 39 40 40 40 42 43 42 41 38 37 36 30 18 28 34 62 74 81 81 79 80 67 63 53 50 16 6 8 10 14 19 45 29 43 46 40 29 35 27 35 38 12 22 23 21 14 10
44 46 47 44 43 40 40 41 41 41 40 40 42 44 42 40 38 39 41 37 35 44 67 60 54 40 50 67 57 62 60 54 23 7 3 5 13 14 18 30 31 42 61 41 39 34 23 11 2 9 14 21 15 12
50 47 49 49 47 47 43 44 42 41 42 44 44 45 47 45 44 48 51 36 32 26 19 37 32 54 48 39 54 57 65 48 25 14 21 14 15 11 20 21 37 41 49 37 17 22 37 40 6 7 26 24 25 23
55 51 48 50 48 51 48 44 45 44 45 46 48 48 49 47 50 57 57 46 34 32 24 50 79 36 31 51 42 47 56 51 48 38 19 24 39 23 31 17 37 41 26 12 17 53 62 37 35 23 30 40 36 37
59 56 51 50 49 51 50 47 46 45 44 47 49 51 52 53 52 36 12 2 21 43 12 11 42 57 45 46 51 55 66 52 21 11 25 32 45 8 8 7 16 50 36 27 24 70 79 33 59 53 40 48 52 53
56 57 53 56 52 50 50 48 46 46 44 46 48 54 57 46 39 19 9 6 12 10 7 18 17 20 32 26 5 7 3 6 13 19 19 38 43 18 9 14 35 71 41 30 32 61 54 31 57 60 60 51 59 59
63 57 55 55 54 49 51 47 47 46 44 45 47 50 41 29 17 17 16 34 38 15 10 8 13 27 34 20 4 4 4 8 12 14 13 28 26 22 8 15 37 60 29 50 27 60 49 44 52 52 52 51 54 56
63 61 50 54 51 46 52 45 44 45 44 42 35 35 23 7 5 12 20 20 24 20 8 12 8 9 8 19 10 2 2 6 11 12 16 21 11 7 16 42 47 58 26 10 18 53 43 48 38 36 38 37 45 38
57 57 54 51 47 48 45 40 41 41 38 26 20 8 6 5 17 32 10 9 17 12 14 14 31 19 12 9 9 8 5 7 7 17 28 12 3 58 55 11 16 25 35 46 55 40 35 31 28 26 32 37 49 38
55 54 52 46 45 39 38 33 35 37 20 19 12 9 12 18 15 8 8 10 11 10 14 17 26 18 17 7 8 16 6 8 9 10 6 9 6 14 35 18 23 28 28 29 26 26 28 29 28 23 28 38 39 37
52 50 47 42 36 36 31 27 30 25 15 25 24 33 18 7 11 12 8 10 7 7 10 13 27 30 16 16 8 4 8 7 11 3 6 11 6 20 25 28 27 29 26 29 26 22 20 18 19 28 26 33 34 36
33 31 33 35 33 32 26 22 25 23 24 9 6 6 7 9 7 10 8 6 6 6 13 23 29 27 11 4 6 3 8 10 16 7 5 8 10 17 27 23 26 28 29 31 30 27 24 20 19 26 34 30 29 30
30 34 40 37 34 24 21 18 16 14 10 11 13 8 10 12 11 5 10 8 15 21 32 31 32 8 10 6 5 6 9 8 9 12 9 4 8 21 24 20 23 25 24 26 28 28 27 26 27 26 27 29 30 29
38 42 40 33 24 21 16 11 11 9 7 12 12 7 15 30 23 19 19 20 21 15 26 29 23 10 6 7 3 7 10 14 11 8 2 21 16 14 19 25 23 21 20 20 22 20 20 22 26 28 28 29 28 26
34 29 23 20 18 16 11 11 13 8 10 12 17 20 25 26 15 10 20 24 8 20 31 25 11 7 8 5 5 10 6 6 4 9 23 22 24 23 23 23 25 23 21 22 20 16 17 16 22 26 27 22 21 19
24 20 17 15 16 13 10 7 13 15 13 12 17 28 32 31 29 20 25 20 7 19 11 10 8 5 12 4 5 15 8 8 16 42 31 25 27 29 27 27 24 23 20 22 15 18 23 20 27 30 24 20 19 13
24 18 19 14 11 5 12 15 12 16 24 30 31 34 31 31 29 25 13 8 12 19 21 6 9 9 8 13 10 13 20 42 35 35 26 27 26 25 24 24 23 23 21 23 23 22 12 8 23 19 15 12 3 6
29 26 20 17 15 13 10 15 20 13 24 31 33 34 29 27 26 25 23 20 22 22 22 9 9 7 7 18 17 21 35 21 20 30 26 24 22 21 18 16 15 16 11 13 13 14 15 12 9 14 14 14 17 6
31 23 16 13 15 8 10 12 17 17 16 18 24 25 23 26 25 18 11 22 25 24 9 6 7 8 18 15 20 21 15 21 25 31 35 27 17 15 11 13 14 14 12 10 6 13 15 9 14 19 17 19 6 10
26 19 13 17 18 13 11 12 22 18 24 29 29 28 22 22 22 24 23 24 33 23 20 14 23 6 19 24 17 15 15 27 38 25 18 13 10 14 9 6 10 11 11 10 9 6 9 10 13 20 20 11 9 4
16 16 10 14 12 9 15 21 17 19 17 31 32 28 22 19 22 24 21 27 30 30 30 21 13 6 7 7 16 15 9 12 17 15 12 10 8 22 13 13 7 9 9 11 6 7 18 17 22 10 5 6 4 4
20 19 10 14 12 11 16 17 25 27 12 12 22 25 22 23 17 8 9 23 30 37 26 21 12 8 10 11 9 4 2 5 8 9 5 21 9 12 12 10 7 5 5 2 9 10 16 16 15 17 19 19 16 13
18 9 8 13 21 11 17 18 17 17 19 27 19 18 12 9 9 9 12 21 21 23 14 19 13 15 14 15 11 9 11 10 6 2 14 8 12 10 7 4 5 12 10 8 11 10 11 16 18 21 25 29 30 32
10 12 12 13 14 13 10 18 26 22 21 20 22 19 3 8 8 4 12 8 14 13 16 14 18 19 18 10 13 14 18 16 11 9 2 7 14 18 9 22 11 9 7 10 13 17 15 16 17 19 22 17 21 25
9 14 12 16 15 11 10 7 14 19 20 23 11 7 4 8 7 7 3 8 6 10 13 12 15 14 18 17 11 29 28 19 13 10 11 16 28 8 17 16 4 10 8 8 12 16 16 19 19 20 22 31 31 21
9 13 20 20 20 16 13 18 21 9 12 9 9 7 5 7 5 4 9 8 9 4 1 6 7 10 8 15 22 17 21 19 13 12 8 0 4 15 17 12 16 10 9 12 12 18 22 23 21 20 23 17 16 14
19 12 21 23 24 22 19 21 8 9 11 17 8 6 5 6 5 2 5 8 10 4 6 8 8 13 9 1 9 9 17 11 13 9 11 15 6 16 18 15 13 21 18 19 17 19 22 21 21 20 17 13 12 10
19 16 22 23 27 18 19 22 25 17 9 4 3 4 6 7 10 11 8 11 17 9 7 16 12 6 12 13 8 10 16 13 18 12 12 8 29 19 12 18 20 16 15 27 25 22 24 23 20 18 18 13 10 8
27 24 25 24 23 20 27 19 27 29 18 3 11 11 14 26 15 8 8 14 18 20 16 11 6 9 10 16 19 17 14 14 15 25 24 21 25 19 18 18 17 16 20 19 21 24 24 19 20 14 14 9 7 6
23 28 29 28 26 29 31 24 24 27 22 14 14 14 12 13 17 12 13 16 14 14 10 13 14 18 17 16 9 16 19 15 15 16 11 29 25 20 18 17 18 18 19 19 20 21 21 18 13 11 9 5 3 2
25 21 22 17 23 22 20 28 29 28 23 20 24 24 20 16 19 14 12 21 18 17 10 13 12 12 13 13 14 16 23 11 25 13 12 29 29 24 18 19 20 19 19 19 19 18 16 11 9 8 10 7 5 5
14 20 20 20 22 12 21 18 12 18 25 28 31 29 27 25 25 12 20 26 27 17 17 6 6 8 15 14 16 6 34 11 32 29 19 34 26 21 19 21 21 19 19 18 17 14 13 7 8 7 5 6 7 8
Wind_Direction_850mb
332 333 331 333 336 337 338 339 341 342 342 343 342 338 337 336 335 332 308 302 291 284 283 280 286 281 274 271 273 278 288 280 258 260 266 268 258 257 261 260 253 253 226 227 242 246 245 257 255 250 151 23 207 78
324 324 323 327 328 330 329 330 332 335 336 336 338 335 331 331 330 326 311 309 290 277 268 281 278 271 259 258 266 272 272 272 284 309 359 324 311 299 299 270 270 245 244 231 226 234 242 260 324 70 103 98 59 71
313 318 318 321 321 322 322 322 325 327 329 330 331 330 325 320 318 314 301 295 296 287 294 276 277 285 267 250 243 243 251 261 296 293 152 233 268 273 292 273 333 266 241 238 228 239 65 72 102 132 131 122 122 111
303 308 314 317 320 317 318 317 317 320 322 324 325 324 323 315 310 307 300 284 270 282 284 293 311 295 282 283 229 230 235 254 260 242 240 233 246 206 278 292 293 296 299 236 225 183 156 176 143 151 127 121 106 97
293 297 302 309 314 311 311 313 314 317 319 322 323 321 320 315 309 307 304 281 247 234 297 301 305 309 282 254 241 227 232 239 241 225 242 253 265 281 268 261 279 293 306 265 207 3 342 139 134 147 123 112 107 103
284 287 291 298 304 307 309 309 310 312 317 321 321 317 313 312 309 316 336 2 226 235 272 302 304 297 288 283 235 226 225 234 237 233 262 268 264 281 282 258 293 314 340 23 16 25 347 134 119 113 104 106 107 107
285 288 285 290 295 302 307 305 307 310 317 321 318 313 311 309 295 242 303 272 251 234 263 288 286 317 330 316 84 49 182 221 234 249 240 256 250 222 263 273 305 273 279 33 81 118 274 126 119 112 108 113 109 110
281 280 283 284 287 297 303 303 305 309 318 321 317 310 314 314 308 289 283 259 261 238 243 273 276 306 334 327 30 200 237 249 230 245 256 251 243 191 220 147 339 323 266 187 156 172 227 114 112 122 113 115 114 120
271 282 279 282 284 294 298 300 306 311 322 326 316 308 293 282 283 257 279 271 251 221 260 238 263 292 335 292 261 193 187 287 255 235 220 236 257 74 130 151 179 263 296 203 120 136 110 105 106 115 124 130 124 127
270 270 277 278 280 287 292 296 305 315 333 344 329 299 234 246 305 299 299 185 203 234 239 258 265 264 213 248 294 130 187 247 245 222 220 205 226 151 98 89 283 346 35 44 57 47 90 110 105 91 83 111 119 115
268 270 276 266 276 278 285 293 306 320 355 345 302 298 310 302 314 254 245 199 194 246 225 248 247 259 261 257 242 167 234 253 267 172 214 149 111 56 92 96 60 62 55 64 78 72 74 71 95 98 93 98 112 125
264 265 262 265 270 280 280 290 303 316 303 303 287 287 291 254 237 242 224 193 215 267 276 276 307 307 282 230 233 317 278 288 269 302 239 130 92 76 67 61 60 62 72 77 76 75 83 88 99 108 110 116 118 123
266 264 266 258 270 272 268 281 299 303 323 308 272 258 237 235 249 232 229 185 249 241 266 304 316 320 287 346 120 147 290 271 310 236 58 59 128 86 64 62 57 57 56 59 62 68 74 79 93 111 107 113 121 125
260 265 264 261 265 256 258 281 283 303 316 255 211 237 237 204 232 279 316 278 289 270 279 294 303 278 299 293 153 248 234 306 264 8 46 329 99 66 61 53 48 41 47 56 58 63 72 83 92 103 114 122 126 125
263 265 256 255 244 239 255 250 266 289 260 254 243 232 236 248 242 245 285 305 311 269 274 295 288 254 263 260 310 287 212 190 8 92 302 161 110 82 61 55 53 45 45 51 45 73 84 94 107 111 115 115 118 119
257 251 249 224 219 228 214 244 263 204 246 237 240 253 270 285 288 306 300 278 285 273 281 262 262 258 243 322 271 236 226 50 255 197 157 122 98 84 71 60 53 51 48 41 56 79 101 118 128 124 116 117 124 121
240 225 225 198 188 189 218 222 194 219 242 237 241 238 249 272 280 302 299 307 326 297 290 279 267 264 128 247 279 7 10 228 301 117 120 124 117 101 88 77 68 62 59 52 66 83 76 90 96 124 97 79 100 113
221 220 207 185 168 188 223 210 238 229 233 250 263 265 267 270 275 264 262 303 263 272 295 264 270 272 319 352 93 286 222 264 115 107 112 117 112 100 92 86 79 78 77 78 72 68 71 70 33 67 92 63 39 176
208 201 189 179 179 182 218 220 222 267 247 260 260 262 266 277 279 283 295 271 257 272 277 297 267 283 340 17 354 357 2 359 121 117 111 116 113 110 103 106 97 101 96 75 97 91 95 96 81 49 52 45 5 326
195 193 187 199 192 205 233 235 216 254 272 268 283 255 262 265 269 262 249 258 265 258 232 238 266 11 317 307 339 349 12 355 86 108 116 128 136 134 133 129 117 102 87 72 28 43 37 65 33 18 19 351 21 34
186 187 207 213 203 231 267 258 222 255 275 277 272 278 254 254 249 246 228 242 254 248 257 262 232 140 302 290 308 354 11 30 53 79 105 107 84 98 14 318 118 86 85 23 259 92 45 42 26 2 351 20 25 4
159 149 167 183 215 236 254 235 249 313 280 267 275 280 267 266 265 255 225 221 237 239 246 249 194 244 237 351 6 10 47 72 64 76 88 101 59 114 130 137 95 80 75 51 104 93 62 20 7 0 350 14 34 178
145 161 203 201 222 235 258 234 241 245 254 273 220 232 241 244 261 238 243 232 232 246 239 237 228 245 261 313 334 322 144 98 59 114 37 351 125 86 75 107 100 69 8 68 21 27 27 39 31 57 60 62 66 83
171 195 233 210 213 248 240 219 221 244 240 233 258 261 243 243 249 253 252 247 276 242 211 161 185 226 235 251 251 237 200 167 169 145 19 0 356 132 78 136 105 70 53 35 43 74 72 85 71 80 87 87 86 94
194 225 212 239 234 220 247 232 229 243 244 242 238 253 68 298 181 230 259 201 219 228 180 186 221 231 220 277 229 197 180 181 186 174 252 52 180 327 85 107 65 53 61 98 104 105 99 107 112 113 107 106 106 106
215 220 213 212 215 219 218 234 203 221 234 250 246 211 27 266 210 225 162 211 163 220 158 201 203 230 245 256 246 209 194 189 213 237 234 229 169 334 247 228 48 89 74 99 146 117 121 132 127 127 125 112 96 102
236 234 211 234 263 227 248 267 293 263 224 248 241 260 198 243 230 116 151 180 185 178 190 237 272 242 220 179 200 221 233 234 180 159 215 119 353 119 121 138 132 100 108 112 130 118 132 138 138 137 136 116 112 107
234 247 229 215 221 247 259 264 251 229 233 241 216 185 304 36 28 87 180 172 181 187 289 272 285 273 212 128 220 189 195 181 204 187 211 177 186 138 121 100 82 133 132 128 129 128 134 136 137 139 137 137 129 109
232 223 226 242 231 218 236 242 247 254 242 225 51 60 1 337 196 192 239 250 202 214 261 267 245 229 218 221 216 208 220 208 195 191 207 180 137 123 108 111 115 123 137 138 137 138 135 134 137 134 141 132 137 133
233 224 235 229 231 230 234 233 238 257 285 256 140 155 202 251 202 187 202 215 234 248 241 229 238 241 214 214 210 205 209 205 218 220 210 180 173 161 156 138 141 136 134 144 148 151 148 138 139 132 145 145 156 194
228 218 227 238 236 228 235 239 237 254 275 270 249 224 211 237 229 230 226 219 233 235 254 263 231 233 218 230 222 194 205 208 194 202 171 178 156 157 152 151 152 149 147 149 148 147 146 149 150 149 161 204 165 44
226 232 222 218 239 250 237 229 227 247 242 231 247 247 238 225 254 258 227 207 217 236 237 224 214 141 179 193 229 217 200 219 154 140 132 169 159 156 154 154 155 153 152 152 152 156 164 172 162 173 160 128 131 177
252 230 224 227 244 218 196 221 231 229 242 244 243 236 228 232 240 241 220 215 219 216 234 183 191 201 190 211 173 141 203 184 146 152 157 158 151 146 151 152 151 152 149 148 154 161 163 170 155 159 147 147 189 155